Вернуться в каталог

STARLINK-4577

АктивенСвязьVLEO
NORAD 53564·PAYLOAD·🇺🇸 United States

Запущен Aug 19, 2022 с Cape Canaveral Space Force Station

Loading…

Ближайшие Пролёты (ближайшие 24 часа)

TLE

СвежийSource: CelesTrak SupGP

Эпоха: Sep 15, 2026, 02:48 UTC

1 53564C 22101AP  26258.11715278 -.00042725  00000+0 -12622-2 0  2588
2 53564  53.1570 268.9126 0001318  92.3691 309.8856 15.34415739    15

Отслеживайте STARLINK-4577 в реальном времени с AllMySat

Download on the App Store